Regional Weather Roundup
Issued by NWS

Home | Current Version | Previous Version | Text Only | Print | Product List | Glossary Off
Versions: 1 2 3 4 5 6 7 8 9 10 11 12 13 14 15 16 17 18 19 20 21 22 23 24 25 26 27 28 29 30 31 32 33 34 35 36 37 38 39 40 41 42 43 44 45 46 47 48 49 50

000
ASUS43 KFSD 302010
RWRSD

WEATHER ROUNDUP FOR SOUTH DAKOTA
NATIONAL WEATHER SERVICE SIOUX FALLS SD
300 PM CDT SUN AUG 30 2015

NOTE: "FAIR" INDICATES FEW OR NO CLOUDS BELOW 12,000 FEET WITH NO
SIGNIFICANT WEATHER AND/OR OBSTRUCTIONS TO VISIBILITY.


SDZ001>005-009-010-012>017-302100-
NORTHWEST AND NORTH CENTRAL SOUTH DAKOTA

CITY           SKY/WX    TMP DP  RH WIND       PRES   REMARKS
BUFFALO          N/A     94  47  20 NW17G28   29.71R
FAITH            N/A     94  52  24 S15       29.72F
MOBRIDGE       PTSUNNY   94  60  32 S18G30    29.68F
$$

SDZ012>016-024>037-041>051-057-063-072>074-302100-
SOUTHWEST AND SOUTH CENTRAL SOUTH DAKOTA

CITY           SKY/WX    TMP DP  RH WIND       PRES   REMARKS
RAPID CTY ARPT SUNNY     96  56  26 SE8       29.77F
PIERRE         PTSUNNY   98  52  21 S20G29    29.72F HX  95
CUSTER         SUNNY     90  41  18 W12G18    29.99F
ELLSWORTH AFB  SUNNY     96  55  25 SE8       29.77F
PHILIP         MOSUNNY   98  56  24 S20G26    29.72F HX  96
PINE RIDGE     SUNNY     96  48  19 S10       29.84F
WINNER         FAIR      95  50  21 S18G33    29.81F HAZE
$$

SDZ004>011-016>023-039-040-302100-
NORTHEAST SOUTH DAKOTA

CITY           SKY/WX    TMP DP  RH WIND       PRES   REMARKS
ABERDEEN       SUNNY     83  69  62 S18       29.78F
WATERTOWN      SUNNY     81  67  62 S14       29.88F
BROOKINGS      SUNNY     77  66  69 S15G21    29.93F
SISSETON         N/A     89  65  44 S12       29.80F
$$

SDZ017-020-022-023-036>040-048>070-302100-
SOUTHEAST SOUTH DAKOTA

CITY           SKY/WX    TMP DP  RH WIND       PRES   REMARKS
SIOUX FALLS    CLOUDY    75  65  70 S16       29.94F
HURON          SUNNY     84  67  56 SE16      29.82F
CHAMBERLAIN    SUNNY     88  61  39 S15G23    29.81F
MITCHELL       SUNNY     83  70  64 S17       29.87F
YANKTON        SUNNY     79  68  69 SE16      29.92F
$$

ABBREVIATIONS USED IN REMARKS
   TC - TEMPERATURE IN CELSIUS
  WCI - WIND CHILL INDEX
   HX - HEAT INDEX
  VSB - VISIBILITY




USA.gov is the U.S. government's official web portal to all federal, state and local government web resources and services.